Terminal Aerodrome Forecast
Issued by NWS

Home | Current Version | Previous Version | Text Only | Print | Product List | Glossary On
Versions: 1 2 3 4 5 6 7 8 9 10 11 12 13 14 15 16 17 18 19 20 21
000
FTUS44 KCRP 300900 AAC
TAFALI
TAF AMD
KALI 300923Z 3009/3106 36004KT 5SM BR FEW007 BKN040 BKN250
      TEMPO 3009/3010 2SM BR BKN010
     FM301000 02010KT P6SM SCT015 OVC025
      TEMPO 3010/3014 BKN015
     FM301500 04013KT P6SM SCT020 BKN030
     FM302100 08013KT P6SM BKN018 OVC028
     FM310200 09010KT P6SM OVC015=

USA.gov is the U.S. government's official web portal to all federal, state and local government web resources and services.